sat.trackr.live / text

‹ back to catalog

RAFS

NORAD 69923 · 2026-156BG

PAYLOAD ACTIVE UNKNOWN

§ Identity

Operator
Country
TURK
Launch date
2026-07-07
Launch site
AFWTR
Launch vehicle
Mass (kg)
RCS (m²)

External: N2YO · Heavens-Above · Gunter

§ Orbital elements

Epoch: 2026-09-19T23:36:43.383744Z

Period
96.51 min
Inclination
97.7429°
Eccentricity
0.0006044
Mean motion
14.92121667 rev/d
Perigee alt
587.1 km
Apogee alt
595.5 km
Semi-major
6,969.5 km
B*
8.7659e-5
RAAN
162.1963°
Arg perigee
266.6103°
Mean anomaly
93.4425°
Rev number
1,113

§ Raw data

RAFS1 69923U 26156BG  26262.98383546  .00000835  00000+0  87659-4 0  99972 69923  97.7429 162.1963 0006044 266.6103  93.4425 14.92121667 11137

JSON: /api/v1/satellites/69923 · /tle

For live sub-satellite position, see the globe view (requires WebGL).

§ Visibility from observer

Set your observer location to see the next 7 days of passes ≥ 10°. The values pass through the URL so the page stays shareable.

No JS? Fill the form by hand. The geolocation button needs JavaScript.